CW0565 Weather Reports


Display with metric or nautical units.
time (UTC)temp
F
wind
direction
speed
MPH
gust
MPH
rain 1hr
in
rain 24hr
in
rain mn
in
humidity
%
barometer
mb
20260902091511 60 230 6.0 12.0 0.00 0.02 0.02 63 1010.2
20260902090009 60 240 3.0 13.0 0.00 0.02 0.02 65 1010.1
20260902084513 59 249 7.0 16.0 0.00 0.02 0.02 67 1010.1
20260902083009 59 236 2.0 12.0 0.00 0.02 0.02 71 1010.1
20260902081510 57 177 7.0 13.0 0.00 0.02 0.02 74 1010.1
20260902074509 56 235 3.0 10.0 0.00 0.02 0.02 77 1010.0
20260902073009 56 234 3.0 9.0 0.00 0.02 0.02 78 1009.9
20260902071511 54 192 2.0 12.0 0.00 0.02 0.02 82 1009.8
20260902070012 53 188 2.0 8.0 0.00 0.02 0.02 87 1010.0
20260902064509 52 188 2.0 7.0 0.00 0.02 0.02 89 1010.0
20260902063010 52 171 3.0 6.0 0.00 0.02 0.02 90 1009.8
20260902061509 51 171 5.0 8.0 0.00 0.02 0.02 91 1009.6
20260902060010 51 165 3.0 6.0 0.00 0.02 0.02 91 1009.5
20260902054510 50 165 1.0 3.0 0.00 0.02 0.02 92 1009.3
20260902053011 50 165 1.0 6.0 0.00 0.02 0.02 93 1009.6
20260902051514 50 166 3.0 6.0 0.00 0.02 0.02 93 1009.7
20260902050009 50 228 0.0 1.0 0.00 0.02 0.02 92 1009.5
20260902044510 50 228 0.0 2.0 0.00 0.02 0.02 91 1009.5
20260902041511 51 228 2.0 4.0 0.00 0.02 0.02 89 1009.4
20260902040009 51 228 1.0 3.0 0.00 0.02 0.02 87 1009.5
20260902034509 52 228 2.0 4.0 0.00 0.02 0.02 85 1009.5
20260902033009 52 241 3.0 7.0 0.00 0.02 0.02 85 1009.3
20260902031510 52 298 1.0 4.0 0.00 0.02 0.02 85 1009.1
20260902030011 52 300 0.0 4.0 0.00 0.02 0.02 85 1009.1
20260902024509 53 299 1.0 8.0 0.00 0.02 0.02 85 1008.9
20260902021509 54 225 4.0 8.0 0.00 0.02 0.02 87 1009.0
20260902014527 54 221 3.0 6.0 0.00 0.02 0.02 96 1008.7
20260902013009 55 170 1.0 3.0 0.00 0.02 0.02 96 1008.4
20260902011520 55 171 1.0 4.0 0.00 0.02 0.02 96 1008.3
20260902004510 55 171 2.0 6.0 0.01 0.02 0.02 96 1008.4
20260902003012 55 176 3.0 4.0 0.02 0.02 0.02 95 1008.4
20260902001514 55 176 0.0 0.0 0.02 0.02 0.02 95 1008.3
20260902000011 55 176 0.0 0.0 0.01 0.02 0.02 94 1008.6
20260901234509 55 176 0.0 0.0 0.01 0.02 0.02 94 1008.6
20260901233010 55 176 0.0 0.0 0.00 0.01 0.01 93 1008.7
20260901231510 54 176 0.0 0.0 0.00 0.01 0.01 93 1008.8
20260901230010 54 176 0.0 0.0 0.01 0.01 0.01 92 1009.0
20260901223011 54 176 2.0 4.0 0.01 0.01 0.01 91 1009.0
20260901221510 54 176 1.0 6.0 0.01 0.01 0.01 88 1009.3
20260901220009 55 175 5.0 7.0 0.00 0.00 0.00 84 1009.5
20260901214528 55 178 4.0 6.0 0.00 0.00 0.00 81 1009.4
20260901213009 55 237 0.0 3.0 0.00 0.00 0.00 78 1009.6
20260901211510 55 236 0.0 2.0 0.00 0.00 0.00 77 1009.7
20260901210010 55 237 2.0 4.0 0.00 0.00 0.00 77 1009.9
20260901204509 55 236 1.0 3.0 0.00 0.00 0.00 76 1009.9
20260901203010 55 236 1.0 3.0 0.00 0.00 0.00 74 1010.1
20260901201510 56 236 0.0 5.0 0.00 0.00 0.00 72 1010.1
20260901200010 56 238 2.0 7.0 0.00 0.00 0.00 72 1010.2
20260901194509 56 248 2.0 8.0 0.00 0.00 0.00 71 1010.3
20260901193010 56 240 4.0 9.0 0.00 0.00 0.00 70 1010.5
20260901191522 57 281 1.0 17.0 0.00 0.00 0.00 70 1010.5
20260901190009 57 190 3.0 16.0 0.00 0.00 0.00 70 1010.4
20260901184510 58 204 9.0 15.0 0.00 0.00 0.00 69 1010.1
20260901183010 59 226 9.0 16.0 0.00 0.00 0.00 69 1009.9
20260901181508 60 246 4.0 14.0 0.00 0.00 0.00 68 1009.7
20260901180011 61 235 8.0 15.0 0.00 0.00 0.00 65 1009.5
20260901174509 62 238 8.0 16.0 0.00 0.00 0.00 62 1009.4
20260901173009 63 246 5.0 16.0 0.00 0.00 0.00 60 1009.4
20260901171509 65 242 5.0 12.0 0.00 0.00 0.00 57 1009.2
20260901170009 65 238 8.0 15.0 0.00 0.00 0.00 57 1009.1
20260901164509 65 265 10.0 17.0 0.00 0.00 0.00 55 1009.1
20260901163009 65 276 11.0 21.0 0.00 0.00 0.00 55 1009.0
20260901161510 66 226 4.0 19.0 0.00 0.00 0.00 58 1008.9
20260901160014 67 249 9.0 23.0 0.00 0.00 0.00 56 1008.9
20260901154510 67 80 10.0 20.0 0.00 0.00 0.00 56 1008.6
20260901153019 68 215 11.0 21.0 0.00 0.00 0.00 55 1008.6
20260901151509 69 262 12.0 19.0 0.00 0.00 0.00 55 1008.7
20260901150017 69 203 10.0 18.0 0.00 0.00 0.00 52 1008.4
20260901144514 70 245 12.0 20.0 0.00 0.00 0.00 50 1008.5
20260901143011 70 259 10.0 20.0 0.00 0.00 0.00 48 1008.3
20260901141509 70 248 8.0 14.0 0.00 0.00 0.00 47 1008.1
20260901140009 70 253 6.0 14.0 0.00 0.00 0.00 42 1008.2
20260901134510 70 236 9.0 17.0 0.00 0.00 0.00 36 1008.3
20260901133009 71 244 8.0 17.0 0.00 0.00 0.00 34 1008.1
20260901131512 72 205 6.0 15.0 0.00 0.00 0.00 33 1007.9
20260901130010 73 239 6.0 14.0 0.00 0.00 0.00 31 1007.9
20260901124526 73 245 5.0 14.0 0.00 0.00 0.00 31 1007.8
20260901123010 72 239 6.0 13.0 0.00 0.00 0.00 31 1007.8
20260901121511 73 219 7.0 12.0 0.00 0.00 0.00 29 1007.8
20260901120010 71 188 9.0 13.0 0.00 0.00 0.00 32 1007.8
20260901114509 69 163 2.0 12.0 0.00 0.00 0.00 56 1007.8
20260901113010 69 159 8.0 14.0 0.00 0.00 0.00 51 1007.7
20260901111510 70 254 7.0 17.0 0.00 0.00 0.00 36 1007.7
20260901110009 69 182 4.0 9.0 0.00 0.00 0.00 56 1007.8
20260901103010 68 180 5.0 9.0 0.00 0.00 0.00 50 1007.7
20260901101509 66 216 4.0 9.0 0.00 0.00 0.00 57 1007.7
20260901100010 65 188 3.0 8.0 0.00 0.00 0.00 62 1007.8
20260901094516 64 157 5.0 7.0 0.00 0.00 0.00 63 1007.8
20260901093008 66 214 1.0 5.0 0.00 0.00 0.00 59 1007.8